Temp
64 64 64 64 64 64 64 64 64 64 64 64 64 64 64 64 65 71 76 73 75 72 70 80 79 77 79 72 71 68 57 55 58 59 61 68 65 67 67 65 66 66 61 61 64
63 63 64 64 64 64 64 64 64 64 64 64 64 64 64 64 71 75 70 73 72 71 78 76 74 75 71 69 68 62 56 60 66 66 63 68 65 67 63 66 62 61 64 66 66
63 63 63 63 63 64 64 64 63 63 64 63 63 64 63 64 71 72 71 72 72 72 79 79 78 75 67 67 65 63 57 64 66 67 68 67 62 66 61 61 58 61 61 62 62
62 62 62 63 63 63 64 63 63 63 63 63 63 63 63 72 61 73 71 71 71 75 78 75 74 67 63 62 68 58 66 66 66 65 63 61 65 61 63 55 63 60 62 62 60
61 61 61 62 62 63 63 63 63 63 63 63 63 63 70 70 72 74 69 70 76 76 75 73 69 67 62 65 64 60 64 66 66 62 63 65 61 62 60 60 62 61 62 59 58
61 60 61 61 61 62 63 63 63 62 62 63 63 62 69 63 75 78 75 72 77 75 72 72 70 71 65 64 60 63 64 65 66 65 64 60 61 61 60 61 60 60 58 56 56
60 60 60 61 61 62 62 62 62 62 61 63 64 68 67 68 77 77 75 73 74 75 71 73 73 66 67 61 66 63 57 62 64 64 61 61 56 57 60 60 58 58 55 56 55
60 60 60 60 61 61 61 62 62 61 61 63 64 68 62 72 75 74 76 72 74 75 72 72 71 67 64 63 62 56 56 49 60 63 59 58 49 61 59 58 56 56 55 55 55
59 59 60 60 60 60 61 61 61 62 63 64 65 66 62 69 69 74 75 71 71 72 70 75 68 63 61 54 51 54 47 51 54 61 58 54 51 56 59 57 56 55 55 55 54
59 59 60 60 60 60 60 61 63 62 63 69 69 59 66 64 67 72 72 73 67 65 64 63 60 54 53 52 43 48 47 53 51 57 57 52 52 55 57 57 55 55 55 53 53
60 59 60 60 60 61 60 60 58 56 61 61 63 64 67 66 69 66 70 68 67 62 53 57 50 48 54 56 58 56 53 51 57 58 54 53 54 59 56 54 53 54 53 52 52
60 60 60 60 60 61 61 60 60 60 54 63 64 66 69 67 59 63 70 61 58 52 56 50 46 57 61 60 57 54 51 50 55 57 52 52 52 58 57 55 56 56 53 52 49
59 59 59 60 60 59 60 62 67 66 54 61 65 63 64 65 61 58 64 61 56 53 54 50 55 61 58 54 52 52 50 49 50 54 52 47 45 51 57 58 56 56 56 54 49
59 59 59 59 55 60 58 65 66 65 48 55 57 62 64 63 55 67 66 62 57 53 54 53 60 57 53 53 54 47 57 54 52 46 39 48 36 47 54 55 53 52 50 50 49
58 58 58 60 57 56 63 65 64 61 32 58 56 63 63 58 57 55 61 58 53 53 55 50 51 51 50 53 56 49 53 50 48 43 40 42 39 44 52 52 48 49 48 49 48
56 57 58 57 57 58 62 60 57 40 31 50 52 50 51 54 52 54 54 58 56 53 54 53 54 53 52 54 55 55 49 46 43 42 31 42 42 41 49 52 49 49 49 49 48
55 56 57 59 54 59 60 54 38 31 54 48 47 50 50 48 48 50 48 46 45 41 43 48 50 52 54 47 50 51 44 32 29 28 29 43 39 46 51 51 53 49 49 50 48
56 56 56 59 58 58 55 45 30 42 48 53 53 50 46 49 47 47 45 43 50 50 45 40 38 49 51 51 47 44 44 32 25 27 30 34 31 42 44 47 49 53 51 50 47
55 55 55 58 57 57 49 36 37 46 55 51 50 45 45 49 48 45 44 44 49 50 44 43 44 50 51 52 53 43 38 50 36 25 25 35 40 48 43 42 44 49 49 48 47
51 53 53 61 58 53 45 39 41 53 56 54 45 49 44 45 43 43 43 49 49 52 55 48 39 45 43 49 48 45 49 35 36 26 25 32 35 40 38 41 42 46 47 48 47
50 46 57 60 56 46 37 38 45 54 57 49 48 49 49 48 45 43 46 50 54 51 54 48 43 36 42 39 41 39 38 41 43 34 30 25 35 48 53 46 42 46 48 48 46
48 40 57 56 43 43 38 43 48 49 54 51 51 50 50 50 45 45 44 50 56 54 46 49 42 33 37 46 49 48 45 45 36 32 36 36 39 47 46 48 47 47 49 49 47
43 46 56 54 38 39 43 43 46 47 49 49 47 49 51 47 40 44 48 55 55 51 47 47 37 33 34 40 42 40 45 47 47 39 33 29 37 44 45 45 47 46 47 48 47
42 38 46 47 47 43 40 41 40 48 46 50 47 51 47 44 49 43 44 50 48 51 50 48 36 34 36 39 39 33 39 43 41 35 35 37 41 40 41 43 44 45 47 47 46
42 40 47 37 40 43 43 41 40 41 46 48 45 45 44 40 42 42 46 47 44 47 47 45 34 36 39 41 41 38 37 40 39 40 35 41 42 49 47 45 47 48 46 46 46
38 39 44 43 45 42 42 38 39 42 44 42 40 45 45 40 43 37 43 43 43 40 40 41 33 36 34 38 38 37 39 39 41 43 44 44 43 52 55 51 45 46 46 46 46
44 42 40 39 39 38 39 41 41 44 45 46 43 42 38 42 44 42 41 41 44 42 37 35 34 32 31 35 35 31 36 39 40 44 45 39 46 41 45 46 44 45 46 46 47
MSLP
1018.19 1018.11 1018.06 1017.96 1017.95 1017.91 1017.71 1017.62 1017.52 1017.37 1017.18 1016.79 1016.45 1016.08 1015.80 1015.51 1014.76 1014.81 1014.32 1014.52 1014.24 1014.13 1014.08 1013.47 1013.06 1012.78 1012.57 1012.67 1012.86 1012.90 1012.87 1012.29 1011.83 1011.91 1011.88 1012.36 1012.58 1013.00 1013.36 1013.69 1014.70 1015.91 1016.86 1017.71 1017.82
1018.29 1018.24 1018.08 1018.00 1017.86 1017.85 1017.69 1017.68 1017.52 1017.33 1017.03 1016.73 1016.36 1016.02 1015.73 1015.52 1014.93 1014.43 1014.58 1014.20 1014.19 1014.20 1013.98 1013.43 1012.93 1012.81 1012.64 1012.89 1013.01 1013.04 1013.01 1012.63 1012.33 1012.22 1012.41 1012.58 1012.96 1013.33 1013.84 1014.34 1015.64 1016.84 1017.57 1017.90 1018.05
1018.22 1018.11 1018.09 1017.91 1017.91 1017.79 1017.69 1017.60 1017.55 1017.33 1017.10 1016.80 1016.45 1016.06 1015.70 1015.55 1015.01 1014.57 1014.40 1014.26 1014.33 1014.32 1013.86 1013.46 1013.14 1013.04 1012.88 1013.12 1013.15 1013.18 1013.20 1013.07 1012.95 1013.09 1013.15 1013.04 1013.59 1013.78 1014.39 1015.19 1016.26 1016.81 1017.66 1018.13 1018.47
1018.12 1018.04 1018.07 1018.01 1018.03 1017.85 1017.79 1017.62 1017.55 1017.45 1017.22 1016.89 1016.52 1016.01 1015.53 1015.24 1015.10 1014.46 1014.39 1014.35 1014.35 1014.28 1013.82 1013.49 1013.25 1013.11 1013.19 1013.20 1013.34 1013.72 1013.24 1013.47 1013.63 1013.87 1013.97 1013.92 1014.00 1014.43 1014.97 1016.30 1016.78 1017.37 1017.77 1018.27 1018.80
1018.05 1018.07 1018.02 1018.01 1017.95 1017.97 1017.74 1017.75 1017.58 1017.45 1017.24 1016.88 1016.55 1016.14 1015.28 1015.03 1014.23 1014.36 1014.43 1014.48 1014.28 1014.12 1013.84 1013.63 1013.52 1013.39 1013.50 1013.35 1013.69 1013.81 1013.56 1013.85 1014.01 1014.41 1014.49 1014.50 1014.70 1014.99 1015.53 1016.48 1017.30 1017.83 1018.12 1018.64 1019.13
1017.86 1017.97 1017.98 1017.94 1017.89 1017.81 1017.73 1017.71 1017.60 1017.43 1017.27 1016.92 1016.53 1016.23 1015.90 1014.99 1014.03 1014.12 1014.26 1014.41 1014.13 1014.09 1013.94 1013.95 1013.82 1013.86 1013.97 1013.93 1014.16 1014.17 1014.11 1014.14 1014.12 1014.58 1014.74 1015.03 1015.10 1015.31 1015.62 1016.39 1017.39 1018.04 1018.46 1018.90 1019.29
1017.66 1017.77 1017.85 1017.91 1017.85 1017.78 1017.71 1017.61 1017.55 1017.39 1017.23 1016.91 1016.63 1016.28 1015.52 1014.41 1013.75 1014.08 1014.29 1014.27 1014.33 1014.21 1014.12 1014.07 1014.27 1014.31 1014.25 1014.29 1014.39 1014.57 1014.63 1014.16 1014.05 1014.42 1014.85 1015.25 1015.58 1015.12 1015.67 1016.54 1017.47 1018.16 1018.61 1019.11 1019.43
1017.47 1017.54 1017.70 1017.79 1017.80 1017.70 1017.65 1017.56 1017.43 1017.34 1017.09 1016.86 1016.71 1016.33 1015.08 1014.13 1013.91 1014.20 1014.18 1014.41 1014.46 1014.51 1014.50 1014.57 1014.63 1014.64 1014.72 1014.91 1014.91 1014.95 1014.77 1014.47 1013.56 1013.99 1015.27 1015.76 1014.98 1014.56 1015.72 1016.73 1017.44 1017.99 1018.45 1019.04 1019.52
1017.17 1017.25 1017.43 1017.60 1017.62 1017.63 1017.57 1017.40 1017.27 1017.15 1017.01 1016.79 1016.61 1016.12 1014.86 1014.44 1014.25 1013.89 1014.03 1014.20 1014.56 1014.73 1014.89 1014.90 1014.86 1014.92 1015.26 1015.29 1015.28 1014.86 1014.78 1014.37 1014.25 1014.22 1015.07 1015.88 1015.35 1015.37 1015.85 1016.64 1017.28 1017.63 1018.22 1018.72 1019.38
1016.84 1016.91 1017.12 1017.25 1017.33 1017.47 1017.45 1017.25 1016.88 1016.99 1016.81 1016.43 1016.25 1016.28 1014.50 1014.12 1014.17 1013.99 1014.11 1014.25 1014.59 1015.08 1015.29 1015.29 1015.23 1015.33 1015.36 1015.32 1014.99 1014.51 1014.75 1014.35 1014.15 1014.49 1014.83 1015.62 1015.26 1015.63 1015.84 1016.33 1016.74 1017.07 1017.73 1018.53 1019.21
1016.39 1016.52 1016.81 1016.90 1017.05 1017.29 1017.43 1017.19 1017.17 1016.94 1016.28 1014.85 1014.35 1013.85 1013.59 1014.37 1014.38 1014.40 1014.33 1014.46 1014.71 1015.10 1015.28 1015.40 1015.48 1014.84 1014.52 1014.82 1014.48 1014.39 1014.40 1014.35 1013.96 1014.22 1014.69 1014.88 1014.80 1014.77 1015.07 1015.78 1016.17 1016.54 1017.04 1018.01 1018.94
1015.77 1016.13 1016.39 1016.67 1016.91 1017.19 1017.39 1016.57 1016.12 1016.22 1015.24 1013.93 1013.50 1013.31 1013.42 1013.82 1014.24 1014.39 1014.43 1014.58 1014.75 1014.89 1015.12 1015.67 1014.78 1014.17 1014.27 1014.22 1014.32 1014.44 1014.53 1014.43 1014.23 1014.44 1014.92 1014.78 1014.34 1013.99 1014.12 1014.37 1014.66 1015.53 1016.34 1017.40 1018.72
1015.13 1015.77 1015.95 1016.37 1016.78 1017.34 1016.85 1016.17 1015.79 1015.77 1015.33 1012.64 1012.01 1011.90 1012.43 1013.32 1013.22 1013.64 1014.17 1014.02 1014.17 1014.51 1014.48 1014.19 1013.62 1013.47 1014.04 1014.15 1014.46 1014.48 1014.41 1014.50 1014.71 1014.71 1014.93 1015.06 1014.03 1013.78 1012.93 1012.90 1013.99 1014.63 1015.52 1016.61 1017.95
1014.48 1015.02 1015.33 1016.12 1017.13 1016.63 1016.34 1015.68 1015.86 1016.11 1015.16 1011.70 1010.99 1010.47 1011.49 1012.60 1012.63 1012.28 1012.99 1013.20 1013.88 1013.77 1014.00 1013.65 1013.41 1013.54 1013.89 1013.82 1014.39 1014.51 1014.24 1014.63 1015.11 1015.60 1015.43 1015.04 1013.27 1012.70 1012.35 1012.50 1013.29 1014.10 1015.18 1016.35 1017.62
1014.14 1014.37 1015.13 1015.28 1015.91 1016.11 1015.43 1015.36 1015.87 1016.35 1015.10 1010.48 1010.93 1011.52 1011.36 1012.24 1012.27 1012.92 1013.13 1013.19 1013.09 1013.35 1013.41 1012.79 1012.96 1013.13 1013.47 1013.42 1014.10 1014.44 1014.40 1014.94 1015.42 1016.04 1016.03 1015.87 1015.13 1011.40 1011.77 1012.03 1012.56 1013.35 1014.76 1016.00 1017.13
1014.81 1014.55 1014.75 1015.07 1015.52 1015.49 1015.23 1015.89 1016.66 1016.79 1013.58 1011.17 1011.65 1011.73 1012.23 1012.24 1012.84 1013.55 1013.71 1013.75 1013.58 1013.47 1013.01 1012.77 1013.19 1013.23 1013.23 1013.75 1014.10 1014.57 1015.33 1016.01 1016.53 1017.05 1016.16 1015.87 1015.45 1010.06 1010.60 1010.34 1011.29 1012.97 1014.39 1015.62 1017.00
1014.94 1014.66 1014.51 1014.52 1014.95 1015.26 1015.49 1016.37 1016.48 1014.91 1011.43 1011.12 1011.25 1011.48 1011.65 1012.16 1013.10 1013.47 1013.74 1013.86 1013.52 1013.77 1012.96 1013.17 1012.86 1013.37 1013.64 1014.38 1014.72 1015.04 1015.93 1016.81 1017.49 1017.60 1015.80 1014.72 1014.34 1010.46 1009.98 1009.98 1010.58 1012.01 1013.61 1015.08 1016.55
1014.48 1014.44 1014.13 1013.92 1014.42 1015.09 1015.42 1015.69 1014.78 1012.10 1010.93 1010.42 1010.34 1011.19 1011.50 1011.70 1012.64 1013.31 1013.54 1013.36 1013.25 1012.86 1012.46 1012.55 1012.27 1012.47 1012.99 1013.14 1013.73 1014.66 1015.26 1016.04 1016.64 1017.09 1016.07 1015.18 1012.88 1010.46 1010.31 1010.05 1010.11 1010.88 1012.81 1014.58 1016.07
1014.07 1013.66 1013.96 1013.27 1014.11 1014.84 1014.64 1013.69 1012.24 1010.98 1009.50 1009.65 1010.67 1010.89 1011.02 1011.22 1011.72 1012.79 1012.87 1012.15 1011.82 1012.38 1012.30 1011.78 1011.56 1011.44 1012.31 1013.06 1013.75 1014.73 1015.04 1015.10 1016.02 1017.12 1016.80 1013.98 1011.69 1010.47 1010.39 1010.76 1011.01 1011.56 1013.03 1014.14 1015.60
1013.81 1013.16 1012.10 1012.13 1013.38 1014.33 1013.45 1012.46 1011.02 1010.04 1009.06 1008.70 1008.90 1009.51 1009.60 1010.49 1011.46 1011.95 1011.63 1010.27 1010.73 1010.63 1010.99 1011.16 1011.78 1012.54 1013.50 1013.47 1013.89 1014.25 1014.36 1015.32 1016.33 1017.07 1016.00 1012.70 1011.41 1009.93 1010.33 1010.57 1011.28 1011.70 1012.32 1013.78 1015.33
1013.77 1012.60 1010.42 1011.44 1013.15 1013.68 1012.44 1012.19 1010.47 1010.04 1009.30 1009.66 1008.96 1008.67 1008.91 1009.31 1010.05 1010.51 1009.74 1009.12 1009.40 1009.68 1010.39 1011.15 1011.87 1013.65 1013.83 1013.65 1013.27 1014.34 1014.32 1014.46 1014.70 1015.38 1014.57 1012.89 1009.37 1007.84 1007.93 1008.77 1010.11 1011.03 1011.95 1012.92 1014.26
1013.06 1011.76 1010.14 1011.20 1012.32 1012.02 1011.65 1011.20 1010.67 1009.79 1009.68 1009.55 1009.34 1009.08 1008.62 1008.91 1009.51 1010.13 1009.06 1008.77 1008.48 1009.13 1010.40 1011.04 1012.12 1012.79 1012.76 1012.23 1012.25 1012.51 1012.88 1013.52 1013.83 1013.92 1013.34 1012.54 1007.93 1007.65 1007.86 1007.91 1009.21 1010.49 1011.48 1012.75 1013.97
1012.41 1011.24 1009.86 1010.49 1010.26 1010.45 1010.77 1010.54 1010.58 1010.08 1009.76 1009.30 1009.11 1008.90 1008.88 1009.12 1009.65 1009.76 1009.40 1008.66 1008.90 1009.41 1009.95 1011.07 1012.76 1013.46 1013.00 1013.12 1013.04 1012.71 1012.27 1012.00 1012.40 1012.89 1012.10 1012.41 1008.06 1008.27 1008.24 1008.46 1009.15 1010.06 1011.04 1012.21 1013.55
1012.41 1010.95 1010.06 1009.97 1009.20 1009.81 1009.96 1009.71 1009.82 1009.68 1009.97 1009.05 1008.87 1008.78 1009.13 1009.00 1009.24 1009.20 1009.23 1009.31 1009.19 1009.76 1010.11 1011.01 1012.42 1012.13 1010.85 1010.36 1010.81 1011.92 1011.39 1011.62 1012.02 1012.19 1009.49 1010.07 1007.53 1008.41 1008.82 1009.24 1009.60 1010.03 1010.78 1011.73 1012.76
1011.91 1010.11 1008.64 1008.82 1008.61 1008.99 1009.46 1009.03 1009.17 1009.04 1008.63 1008.33 1008.61 1008.78 1008.85 1008.92 1009.04 1009.03 1009.41 1009.74 1010.01 1010.15 1010.67 1011.43 1012.14 1012.37 1010.97 1010.27 1010.99 1010.78 1010.83 1011.07 1011.08 1008.99 1010.57 1006.08 1008.27 1006.83 1007.94 1008.64 1008.99 1009.42 1010.70 1011.57 1012.28
1011.11 1010.32 1009.17 1008.66 1008.30 1008.62 1008.55 1008.24 1008.59 1008.35 1008.27 1008.15 1007.75 1007.99 1008.58 1008.61 1008.49 1008.88 1009.66 1009.90 1010.11 1010.67 1011.38 1011.85 1011.88 1012.15 1010.95 1010.21 1011.10 1010.72 1010.55 1010.02 1009.61 1008.63 1008.78 1007.50 1006.80 1007.02 1006.84 1007.31 1008.42 1009.12 1009.99 1011.00 1011.59
1010.34 1010.43 1010.17 1009.06 1008.52 1008.11 1007.20 1006.88 1007.04 1008.11 1007.92 1007.87 1008.12 1008.12 1008.52 1009.37 1009.48 1009.93 1010.07 1009.95 1009.77 1010.00 1010.99 1011.81 1012.03 1012.00 1010.40 1010.26 1010.79 1010.05 1007.23 1008.81 1008.60 1008.22 1007.62 1007.19 1004.13 1007.31 1007.57 1008.09 1008.51 1008.99 1009.53 1010.15 1010.77
Wind_Speed
2 3 3 4 4 5 6 6 7 8 9 11 12 12 11 13 15 4 2 2 3 2 5 4 4 2 5 3 2 2 2 4 2 3 2 6 4 1 2 3 6 6 5 4 1
1 2 2 3 4 5 6 7 8 9 11 12 13 13 12 13 4 4 1 3 1 0 4 4 1 1 2 2 2 2 2 5 7 6 4 7 2 8 3 5 5 6 7 5 6
2 2 3 4 5 5 6 7 8 9 11 12 13 14 13 10 5 3 1 3 2 3 5 5 4 4 3 1 3 1 2 5 5 7 8 3 0 2 3 5 5 6 9 6 7
4 3 4 4 6 6 7 7 9 9 11 12 14 15 16 4 3 3 2 2 1 6 5 2 4 3 1 2 3 4 2 3 4 3 2 1 2 2 4 4 6 7 7 6 7
5 5 4 4 5 7 7 8 9 10 11 13 14 14 7 4 1 4 5 2 3 2 3 2 4 3 4 3 1 4 2 2 2 2 4 2 4 6 5 9 7 6 5 6 6
6 6 5 5 5 5 6 7 8 9 12 13 13 15 4 5 3 7 5 3 3 3 2 2 4 6 4 3 2 4 6 6 6 7 5 4 6 4 4 10 8 6 7 5 5
8 7 6 6 5 5 6 6 7 8 12 12 10 5 4 7 1 6 4 1 2 3 2 1 5 2 6 3 4 4 5 8 10 8 4 5 8 11 8 9 8 8 6 5 5
9 8 7 7 6 6 6 7 6 8 10 9 7 5 6 1 2 3 5 3 2 2 2 4 3 2 2 2 3 3 5 3 6 10 4 7 8 9 11 9 9 10 9 7 6
10 9 8 7 6 6 6 7 7 7 7 8 5 4 5 1 3 6 6 5 5 4 3 1 2 2 3 3 4 7 5 7 4 9 7 8 5 4 8 9 9 9 8 8 7
11 9 8 7 6 6 7 6 5 6 5 5 4 3 7 2 4 4 1 6 3 6 4 4 3 3 3 5 6 7 6 7 7 8 6 8 14 6 9 10 11 9 9 8 7
12 10 10 8 6 5 6 4 3 3 5 9 8 4 5 4 2 3 4 6 5 3 6 6 4 10 14 12 12 9 10 7 9 4 5 10 13 11 13 9 10 10 10 9 9
12 11 10 8 6 4 4 4 3 1 7 14 15 12 4 5 4 7 6 8 6 7 8 2 11 15 8 10 8 9 11 12 8 6 4 8 13 11 11 15 18 13 10 10 9
12 11 11 10 8 4 6 6 1 3 6 8 17 9 8 9 8 15 11 5 6 9 13 11 4 12 12 7 4 10 10 8 9 4 6 6 11 14 12 12 11 9 8 9 13
12 10 10 10 6 4 6 6 3 5 6 8 9 6 11 7 8 8 17 6 7 14 10 13 14 11 6 12 9 9 9 11 10 4 6 8 10 4 8 13 14 10 8 9 10
5 10 10 17 4 6 0 7 3 2 7 4 8 5 5 12 3 3 4 2 9 9 8 7 8 10 13 8 9 5 4 3 3 6 6 7 12 5 10 18 17 15 11 10 11
9 8 6 9 2 1 7 9 3 5 13 3 4 6 7 9 3 3 1 4 1 4 10 9 3 3 5 3 5 8 5 2 1 1 8 11 13 5 12 17 7 11 14 12 13
9 9 5 5 3 6 10 6 4 6 4 6 6 8 9 8 6 5 9 9 9 7 15 7 13 4 4 5 5 6 6 2 3 3 9 4 11 17 3 2 9 18 18 16 15
10 9 6 5 8 9 5 4 6 8 14 4 4 6 9 9 6 6 7 9 17 8 3 9 5 21 12 14 9 11 10 7 8 6 4 2 10 8 3 5 5 16 18 16 17
11 3 6 8 10 8 5 7 11 9 7 10 6 7 9 9 6 8 10 6 9 18 11 5 8 4 10 6 9 6 10 10 5 2 2 7 9 7 5 3 1 13 17 18 18
4 4 6 11 14 6 9 14 11 10 4 4 17 14 13 12 8 13 13 9 9 16 13 4 4 3 2 6 4 2 4 4 3 4 7 7 11 12 7 12 8 15 19 18 17
3 4 4 16 9 5 11 7 9 15 9 5 7 11 13 9 13 11 7 4 15 15 21 4 4 1 4 7 12 5 5 5 5 5 4 4 10 4 17 15 19 17 18 20 20
4 6 8 13 9 5 13 8 5 4 20 9 8 12 13 7 5 12 13 8 8 9 11 6 2 5 10 9 10 10 9 14 6 8 9 6 19 4 6 11 15 15 17 17 18
4 6 8 10 9 13 6 16 10 9 13 6 14 11 5 5 4 11 16 10 6 10 13 10 4 4 3 1 2 7 13 17 19 2 18 5 14 4 6 6 10 14 15 16 17
2 5 7 7 6 15 15 16 17 14 23 11 3 15 12 20 14 6 9 7 3 11 9 9 5 10 15 4 8 7 14 18 16 12 17 23 21 3 3 5 7 11 14 16 18
4 7 4 7 12 19 13 5 18 18 14 20 19 21 16 14 15 20 17 12 4 5 6 11 10 11 23 22 11 6 7 20 24 33 16 30 24 21 11 13 15 11 11 15 18
3 5 3 8 9 18 21 19 16 13 16 12 11 13 21 18 14 7 20 12 20 6 8 5 7 11 24 21 17 19 13 19 26 28 28 30 30 4 9 10 9 11 15 16 17
3 0 1 4 5 9 17 24 21 25 21 12 6 13 5 6 9 4 6 5 6 13 15 10 7 6 18 7 11 14 30 25 22 26 21 27 38 5 4 10 10 9 12 15 16
Wind_Direction
45 53 51 43 30 20 20 12 5 360 354 352 348 344 338 334 308 212 336 23 16 314 322 288 251 324 269 114 324 292 311 268 216 298 81 116 162 101 62 133 56 40 62 82 34
340 356 18 18 23 11 9 359 355 353 351 349 345 339 334 338 294 276 335 43 13 140 249 249 205 227 162 111 322 312 344 346 4 25 359 135 323 148 176 163 115 105 105 88 59
276 320 340 356 355 357 355 354 349 350 346 342 337 331 328 322 272 69 54 79 103 279 280 313 314 298 291 16 151 139 256 13 67 32 353 94 171 45 262 247 28 124 119 93 89
261 285 314 331 335 344 344 347 344 344 341 339 334 328 323 259 333 95 121 111 228 296 260 196 246 253 289 241 90 288 168 340 50 60 321 307 28 251 224 98 84 73 94 114 95
249 265 280 302 321 329 340 339 341 340 337 336 332 331 327 257 43 136 146 150 233 268 271 318 310 330 270 20 50 225 276 74 97 128 255 11 256 245 156 130 111 109 117 110 97
241 255 266 279 301 316 328 332 336 337 334 331 328 322 258 256 110 132 113 140 277 248 177 279 347 10 292 311 246 12 339 278 198 205 223 228 253 157 155 135 148 163 141 122 107
236 246 256 269 281 299 314 322 330 336 329 325 328 313 265 253 97 124 166 52 19 314 266 42 328 268 356 239 61 314 300 265 222 203 236 164 272 230 142 148 162 189 160 154 141
231 233 248 262 278 291 303 310 317 323 315 314 319 287 258 18 36 169 165 120 146 102 359 30 295 302 305 75 228 249 231 283 350 149 146 152 264 199 142 164 183 188 180 178 158
229 229 235 249 267 283 291 296 291 295 292 292 276 240 259 177 194 188 190 154 119 103 46 153 246 242 129 215 262 202 261 231 191 183 134 185 273 154 159 184 207 184 195 178 154
224 223 227 235 251 268 281 269 291 290 235 248 267 314 187 175 106 145 180 145 147 142 133 188 202 208 206 191 218 214 209 258 242 201 187 194 258 180 190 203 216 198 184 181 189
219 216 218 217 228 256 292 240 219 188 227 204 184 248 121 82 131 186 194 141 147 207 192 207 203 208 212 211 244 279 298 283 291 131 184 228 246 234 197 210 215 211 187 181 182
211 216 211 209 205 209 273 259 63 341 291 223 251 245 150 185 136 172 189 175 182 200 200 114 230 235 236 242 229 241 256 264 283 146 181 266 262 262 192 209 206 205 191 174 139
202 208 198 192 176 165 228 233 13 292 257 233 209 204 186 165 205 178 184 204 189 203 198 202 193 212 226 245 225 246 240 252 245 255 211 274 267 246 251 213 198 210 189 169 156
202 193 190 170 152 194 218 232 244 319 272 230 192 221 165 161 237 171 193 169 193 212 213 233 237 254 221 222 182 243 223 236 252 273 247 146 280 259 259 233 194 191 189 163 155
297 186 181 150 146 188 246 138 142 279 264 339 108 346 137 174 106 51 340 93 198 188 182 212 178 207 207 198 182 217 56 353 204 256 289 270 284 238 213 249 212 198 183 173 160
308 281 195 180 153 304 95 94 101 136 232 177 112 143 145 225 72 103 156 19 349 281 249 245 82 227 200 129 209 120 91 90 88 226 256 210 219 242 224 230 209 186 182 173 158
308 261 220 156 160 140 123 124 157 212 260 174 175 169 195 167 151 173 177 186 186 175 226 219 227 189 141 101 5 159 136 231 269 202 239 162 221 242 290 123 194 183 180 174 160
306 255 226 218 132 154 153 165 195 218 232 59 111 177 193 146 186 193 173 206 224 253 341 193 242 186 177 205 173 188 184 167 225 214 279 330 240 248 329 27 335 169 169 166 166
317 196 226 198 156 167 197 207 205 203 191 174 143 202 199 172 141 168 215 221 194 201 198 201 234 65 153 197 187 182 217 229 343 109 350 219 262 278 180 208 351 155 168 173 169
317 222 217 167 156 185 236 230 229 222 331 244 211 189 194 178 178 187 185 197 215 185 216 244 244 8 75 78 330 176 172 125 147 222 232 262 251 240 232 217 201 180 179 175 169
251 246 186 152 142 190 229 232 251 248 247 192 296 240 216 188 185 193 223 211 190 186 191 187 171 172 108 195 177 147 215 219 180 187 225 301 256 258 226 195 192 194 183 179 175
260 234 156 145 184 199 223 213 202 264 236 240 251 271 259 254 175 235 209 237 187 142 187 195 36 219 203 201 212 206 190 198 185 224 230 241 264 17 347 185 177 187 183 180 178
239 232 175 166 208 211 197 224 229 224 230 214 221 225 221 243 232 227 246 265 153 160 171 158 186 230 262 82 57 210 218 215 223 103 235 168 263 342 1 135 176 176 178 178 175
260 226 205 212 224 219 215 223 219 210 239 241 271 226 212 233 229 238 225 250 330 187 158 100 172 214 228 150 129 193 203 213 208 222 238 227 250 258 249 233 182 185 181 177 180
211 244 225 197 217 222 205 190 227 224 211 218 228 234 241 239 223 231 231 249 348 43 130 153 219 210 247 258 277 198 196 211 209 227 212 246 234 239 216 202 209 185 170 180 184
239 213 266 260 223 221 217 221 237 228 223 222 248 213 221 240 217 218 229 208 222 167 168 176 234 214 254 248 248 259 224 223 226 230 236 253 257 188 249 197 152 175 176 189 190
182 275 226 253 244 245 218 224 230 231 246 231 229 222 255 277 260 12 40 5 248 194 191 171 190 190 250 199 237 255 236 230 227 234 227 238 247 138 133 155 180 180 177 190 195